Location: Unspecified
(40.7150°N, 0.0000°E)
Time: 04:59:29
(UTC+00:00)

NOAA 16 DEB - Visible Passes

Search period start: 04 April 2026 00:00
Search period end: 14 April 2026 00:00
Orbit: 709 x 735 km, 99.0° (Epoch: 29 March)

Date Brightness Start Highest point End Pass type
(mag) Time Alt. Az. Time Alt. Az. Time Alt. Az.
4 Apr ? 20:11:04 10° NNE 20:15:58 67° ESE 20:19:43 17° S visible
4 Apr ? 21:50:44 10° NNW 21:53:25 15° WNW 21:56:07 10° W visible
5 Apr ? 19:22:31 10° NE 19:26:17 22° E 19:29:45 11° SE visible
5 Apr ? 20:59:51 10° N 21:04:26 41° WNW 21:09:02 10° SW visible
6 Apr ? 20:10:12 10° NNE 20:15:05 65° ESE 20:19:02 16° S visible
6 Apr ? 21:49:45 10° NNW 21:52:34 15° WNW 21:55:22 10° W visible
7 Apr ? 19:21:40 10° NE 19:25:21 21° E 19:29:00 10° SE visible
7 Apr ? 20:58:54 10° N 21:03:32 43° WNW 21:08:09 10° SW visible
8 Apr ? 20:09:15 10° NNE 20:14:08 62° ESE 20:18:15 14° S visible
8 Apr ? 21:48:43 10° NNW 21:51:38 16° WNW 21:54:32 10° W visible
9 Apr ? 19:20:45 10° NE 19:24:22 20° E 19:27:57 10° SE visible
9 Apr ? 20:57:54 10° N 21:02:34 44° WNW 21:07:12 10° SW visible
10 Apr ? 20:08:14 10° NNE 20:13:07 60° ESE 20:17:22 13° S visible
10 Apr ? 21:47:36 10° NNW 21:50:38 17° WNW 21:53:39 10° W visible
11 Apr ? 19:19:46 10° NE 19:23:18 19° E 19:26:48 10° SE visible
11 Apr ? 20:56:49 10° N 21:01:31 46° WNW 21:06:11 10° SW visible
12 Apr ? 20:07:10 10° NNE 20:12:01 57° ESE 20:16:25 12° S visible
12 Apr ? 21:46:26 10° NNW 21:49:34 17° WNW 21:52:42 10° WSW visible
13 Apr ? 19:18:44 10° NE 19:22:10 19° E 19:25:34 10° SE visible
13 Apr ? 20:55:41 10° N 21:00:24 48° WNW 21:05:06 10° SW visible
